"read_dt","SO2 (ppb)","flags","PMT voltage (V)","lamp voltage (V)","lamp intensity (Hz)","internal temp (C)","react chamber temp (C)","sample flow (l/min)","pres (mmHg)","SO2 bkg (ppb)","SO2 coefficient"
2014-07-02 00:00:00,1907E-3,5C000000,-0724,0835,12215,026.0,045.5,0.489,738.7,01.18,0.508
2014-07-02 00:01:00,1872E-3,5C000000,-0724,0837,12272,026.0,045.5,0.488,738.7,01.18,0.508
2014-07-02 00:02:00,1814E-3,5C000000,-0724,0836,12104,026.0,045.4,0.489,738.7,01.18,0.508
2014-07-02 00:03:00,1897E-3,5C000000,-0724,0836,12138,026.0,045.4,0.488,738.7,01.18,0.508
2014-07-02 00:04:00,1816E-3,5C000000,-0724,0835,12214,026.0,045.4,0.488,738.7,01.18,0.508
2014-07-02 00:05:00,1826E-3,5C000000,-0724,0837,12361,026.0,045.4,0.489,738.7,01.18,0.508
2014-07-02 00:06:00,1696E-3,5C000000,-0724,0837,12312,026.1,045.4,0.488,738.7,01.18,0.508
2014-07-02 00:07:00,1865E-3,5C000000,-0724,0836,11909,026.1,045.4,0.489,738.7,01.18,0.508
2014-07-02 00:08:00,1843E-3,5C000000,-0724,0835,12046,026.1,045.4,0.488,738.7,01.18,0.508
2014-07-02 00:09:00,1832E-3,5C000000,-0724,0836,12072,026.1,045.5,0.488,738.7,01.18,0.508
2014-07-02 00:10:00,1955E-3,5C000000,-0724,0835,12190,026.1,045.4,0.488,738.7,01.18,0.508
2014-07-02 00:11:00,1722E-3,5C000000,-0724,0836,12052,026.1,045.4,0.488,738.7,01.18,0.508
2014-07-02 00:12:00,1691E-3,5C000000,-0724,0837,12157,026.1,045.4,0.488,738.7,01.18,0.508
2014-07-02 00:13:00,1858E-3,5C000000,-0724,0835,12145,026.1,045.4,0.488,738.7,01.18,0.508
2014-07-02 00:14:00,1909E-3,5C000000,-0724,0836,12215,026.1,045.4,0.488,738.7,01.18,0.508
2014-07-02 00:15:00,1780E-3,5C000000,-0724,0835,12149,026.2,045.4,0.488,738.7,01.18,0.508
2014-07-02 00:16:00,1819E-3,5C000000,-0724,0835,12156,026.1,045.4,0.488,738.7,01.18,0.508
2014-07-02 00:17:00,1746E-3,5C000000,-0724,0836,12121,026.1,045.4,0.488,738.7,01.18,0.508
2014-07-02 00:18:00,1788E-3,5C000000,-0724,0835,12212,026.1,045.4,0.488,738.7,01.18,0.508
2014-07-02 00:19:00,1780E-3,5C000000,-0724,0836,12211,026.1,045.4,0.488,738.7,01.18,0.508
2014-07-02 00:20:00,1960E-3,5C000000,-0724,0836,11875,026.1,045.5,0.488,738.7,01.18,0.508
2014-07-02 00:21:00,1862E-3,5C000000,-0724,0835,12016,026.1,045.4,0.488,738.7,01.18,0.508
2014-07-02 00:22:00,1939E-3,5C000000,-0724,0836,12110,026.1,045.4,0.488,738.7,01.18,0.508
2014-07-02 00:23:00,1957E-3,5C000000,-0724,0834,11982,026.1,045.4,0.488,738.7,01.18,0.508
2014-07-02 00:24:00,1868E-3,5C000000,-0724,0835,11870,026.1,045.5,0.488,738.7,01.18,0.508
2014-07-02 00:25:00,1792E-3,5C000000,-0724,0836,12290,026.1,045.4,0.488,738.7,01.18,0.508
2014-07-02 00:26:00,1888E-3,5C000000,-0724,0835,12145,026.1,045.4,0.488,738.7,01.18,0.508
2014-07-02 00:27:00,1870E-3,5C000000,-0724,0836,12167,026.1,045.4,0.488,738.7,01.18,0.508
2014-07-02 00:28:00,1879E-3,5C000000,-0724,0835,11988,026.1,045.4,0.488,738.7,01.18,0.508
2014-07-02 00:29:00,1948E-3,5C000000,-0724,0835,12107,026.1,045.4,0.488,738.7,01.18,0.508
2014-07-02 00:30:00,1810E-3,5C000000,-0724,0835,12185,026.1,045.4,0.488,738.7,01.18,0.508
2014-07-02 00:31:00,1886E-3,5C000000,-0724,0835,12220,026.1,045.5,0.488,738.7,01.18,0.508
2014-07-02 00:32:00,1960E-3,5C000000,-0724,0835,12009,026.1,045.4,0.488,738.7,01.18,0.508
2014-07-02 00:33:00,1766E-3,5C000000,-0724,0836,12174,026.1,045.4,0.488,738.8,01.18,0.508
2014-07-02 00:34:00,1859E-3,5C000000,-0724,0835,12153,026.1,045.4,0.488,738.7,01.18,0.508
2014-07-02 00:35:00,1805E-3,5C000000,-0724,0836,11966,026.1,045.5,0.488,738.8,01.18,0.508
2014-07-02 00:36:00,1755E-3,5C000000,-0724,0835,12210,026.1,045.4,0.488,738.8,01.18,0.508
2014-07-02 00:37:00,1817E-3,5C000000,-0724,0835,12127,026.1,045.4,0.489,738.8,01.18,0.508
2014-07-02 00:38:00,1851E-3,5C000000,-0724,0835,12183,026.1,045.4,0.488,738.8,01.18,0.508
2014-07-02 00:39:00,1737E-3,5C000000,-0724,0835,12134,026.0,045.5,0.488,738.8,01.18,0.508
2014-07-02 00:40:00,2001E-3,5C000000,-0724,0836,12181,026.1,045.4,0.488,738.8,01.18,0.508
2014-07-02 00:41:00,1795E-3,5C000000,-0724,0836,12061,026.0,045.4,0.488,738.8,01.18,0.508
2014-07-02 00:42:00,1875E-3,5C000000,-0724,0835,12181,026.0,045.4,0.488,738.8,01.18,0.508
2014-07-02 00:43:00,1857E-3,5C000000,-0724,0836,11982,026.1,045.4,0.489,738.8,01.18,0.508
2014-07-02 00:44:00,1889E-3,5C000000,-0724,0836,12240,026.1,045.4,0.488,738.8,01.18,0.508
2014-07-02 00:45:00,1837E-3,5C000000,-0724,0836,12201,026.0,045.4,0.488,738.8,01.18,0.508
2014-07-02 00:46:00,1711E-3,5C000000,-0724,0835,12131,026.1,045.5,0.488,738.8,01.18,0.508
2014-07-02 00:47:00,1764E-3,5C000000,-0724,0835,12185,026.0,045.4,0.488,738.8,01.18,0.508
2014-07-02 00:48:00,1856E-3,5C000000,-0724,0836,12157,026.0,045.4,0.488,738.8,01.18,0.508
2014-07-02 00:49:00,1897E-3,5C000000,-0724,0836,12055,026.1,045.4,0.488,738.8,01.18,0.508
2014-07-02 00:50:00,1822E-3,5C000000,-0724,0836,12022,026.1,045.5,0.488,738.8,01.18,0.508
2014-07-02 00:51:00,1893E-3,5C000000,-0724,0836,12292,026.1,045.4,0.488,738.8,01.18,0.508
2014-07-02 00:52:00,1792E-3,5C000000,-0724,0835,12131,026.1,045.4,0.488,738.9,01.18,0.508
2014-07-02 00:53:00,1851E-3,5C000000,-0724,0836,12146,026.1,045.4,0.488,738.9,01.18,0.508
2014-07-02 00:54:00,1878E-3,5C000000,-0724,0835,12267,026.0,045.4,0.488,738.9,01.18,0.508
2014-07-02 00:55:00,1717E-3,5C000000,-0724,0836,12069,026.1,045.4,0.488,738.9,01.18,0.508
2014-07-02 00:56:00,1841E-3,5C000000,-0724,0836,12220,026.1,045.4,0.488,738.9,01.18,0.508
2014-07-02 00:57:00,1816E-3,5C000000,-0724,0835,12193,026.0,045.4,0.488,738.9,01.18,0.508
2014-07-02 00:58:00,1796E-3,5C000000,-0724,0835,12092,026.0,045.4,0.488,738.9,01.18,0.508
2014-07-02 00:59:00,1868E-3,5C000000,-0724,0834,12089,026.0,045.4,0.488,738.9,01.18,0.508
2014-07-02 01:00:00,1933E-3,5C000000,-0724,0836,12200,026.0,045.4,0.488,738.9,01.18,0.508
2014-07-02 01:01:00,1827E-3,5C000000,-0724,0835,12289,026.1,045.4,0.488,738.9,01.18,0.508
2014-07-02 01:02:00,1829E-3,5C000000,-0724,0836,12164,026.1,045.4,0.488,738.9,01.18,0.508
2014-07-02 01:03:00,1753E-3,5C000000,-0724,0834,12118,026.1,045.4,0.488,738.9,01.18,0.508
2014-07-02 01:04:00,1859E-3,5C000000,-0724,0836,12158,026.1,045.4,0.488,738.9,01.18,0.508
2014-07-02 01:05:00,1820E-3,5C000000,-0724,0835,12141,026.1,045.4,0.488,738.9,01.18,0.508
2014-07-02 01:06:00,1776E-3,5C000000,-0724,0835,12261,026.1,045.4,0.488,738.9,01.18,0.508
2014-07-02 01:07:00,1899E-3,5C000000,-0724,0835,12262,026.1,045.4,0.488,738.8,01.18,0.508
2014-07-02 01:08:00,1827E-3,5C000000,-0724,0836,12126,026.1,045.5,0.488,738.9,01.18,0.508
2014-07-02 01:09:00,1789E-3,5C000000,-0724,0835,12102,026.1,045.5,0.488,738.9,01.18,0.508
2014-07-02 01:10:00,1816E-3,5C000000,-0724,0835,12146,026.1,045.4,0.489,738.8,01.18,0.508
2014-07-02 01:11:00,1956E-3,5C000000,-0724,0836,12306,026.0,045.4,0.488,738.8,01.18,0.508
2014-07-02 01:12:00,1912E-3,5C000000,-0724,0835,12148,026.1,045.4,0.488,738.8,01.18,0.508
2014-07-02 01:13:00,1813E-3,5C000000,-0724,0836,12208,026.0,045.4,0.489,738.8,01.18,0.508
2014-07-02 01:14:00,1757E-3,5C000000,-0724,0836,12077,026.1,045.4,0.488,738.8,01.18,0.508
2014-07-02 01:15:00,1835E-3,5C000000,-0724,0835,12152,026.1,045.4,0.488,738.8,01.18,0.508
2014-07-02 01:16:00,1928E-3,5C000000,-0724,0835,12063,026.0,045.4,0.488,738.8,01.18,0.508
2014-07-02 01:17:00,1799E-3,5C000000,-0724,0835,12227,026.0,045.4,0.488,738.9,01.18,0.508
2014-07-02 01:18:00,1886E-3,5C000000,-0724,0835,12046,026.1,045.5,0.488,738.8,01.18,0.508
2014-07-02 01:19:00,1749E-3,5C000000,-0724,0835,12157,026.0,045.4,0.488,738.8,01.18,0.508
2014-07-02 01:20:00,1842E-3,5C000000,-0724,0835,12263,026.0,045.4,0.488,738.9,01.18,0.508
2014-07-02 01:21:00,1786E-3,5C000000,-0724,0836,12236,026.1,045.4,0.488,738.9,01.18,0.508
2014-07-02 01:22:00,2035E-3,5C000000,-0724,0836,12157,026.0,045.4,0.488,738.9,01.18,0.508
2014-07-02 01:23:00,1923E-3,5C000000,-0724,0835,11931,026.0,045.4,0.489,738.9,01.18,0.508
2014-07-02 01:24:00,1876E-3,5C000000,-0724,0836,12107,026.0,045.5,0.488,738.9,01.18,0.508
2014-07-02 01:25:00,1706E-3,5C000000,-0724,0835,12243,026.0,045.5,0.488,738.9,01.18,0.508
2014-07-02 01:26:00,1895E-3,5C000000,-0724,0836,12228,026.0,045.4,0.489,738.9,01.18,0.508
2014-07-02 01:27:00,1796E-3,5C000000,-0724,0835,12077,026.0,045.4,0.488,738.9,01.18,0.508
2014-07-02 01:28:00,1768E-3,5C000000,-0724,0835,12093,026.0,045.4,0.488,738.9,01.18,0.508
2014-07-02 01:29:00,2019E-3,5C000000,-0724,0835,12108,026.0,045.4,0.489,738.9,01.18,0.508
2014-07-02 01:30:00,1877E-3,5C000000,-0724,0835,12207,026.0,045.4,0.488,738.9,01.18,0.508
2014-07-02 01:31:00,1795E-3,5C000000,-0724,0835,12160,026.0,045.4,0.488,738.9,01.18,0.508
2014-07-02 01:32:00,1812E-3,5C000000,-0724,0834,11983,026.0,045.5,0.488,738.9,01.18,0.508
2014-07-02 01:33:00,1758E-3,5C000000,-0724,0836,12372,026.0,045.4,0.488,738.9,01.18,0.508
2014-07-02 01:34:00,1847E-3,5C000000,-0724,0836,12175,026.0,045.4,0.488,738.9,01.18,0.508
2014-07-02 01:35:00,1871E-3,5C000000,-0724,0835,12133,026.0,045.4,0.488,738.9,01.18,0.508
2014-07-02 01:36:00,1857E-3,5C000000,-0724,0835,12304,026.0,045.4,0.489,738.9,01.18,0.508
2014-07-02 01:37:00,1824E-3,5C000000,-0724,0835,12134,026.0,045.4,0.488,738.9,01.18,0.508
2014-07-02 01:38:00,1843E-3,5C000000,-0724,0836,12097,026.0,045.4,0.488,738.9,01.18,0.508
2014-07-02 01:39:00,1748E-3,5C000000,-0724,0835,12157,026.0,045.5,0.489,738.9,01.18,0.508
2014-07-02 01:40:00,1782E-3,5C000000,-0724,0835,12249,026.0,045.4,0.488,738.8,01.18,0.508
2014-07-02 01:41:00,1833E-3,5C000000,-0724,0835,12235,026.0,045.4,0.488,738.9,01.18,0.508
2014-07-02 01:42:00,1917E-3,5C000000,-0724,0835,12140,026.0,045.4,0.489,738.9,01.18,0.508
2014-07-02 01:43:00,1826E-3,5C000000,-0724,0835,12143,026.0,045.4,0.488,738.9,01.18,0.508
2014-07-02 01:44:00,1806E-3,5C000000,-0724,0837,12067,026.0,045.4,0.488,738.9,01.18,0.508
2014-07-02 01:45:00,1830E-3,5C000000,-0724,0835,12163,026.0,045.4,0.489,738.8,01.18,0.508
2014-07-02 01:46:00,1765E-3,5C000000,-0724,0836,12292,026.0,045.4,0.488,738.9,01.18,0.508
2014-07-02 01:47:00,1687E-3,5C000000,-0724,0836,12209,026.0,045.5,0.488,738.9,01.18,0.508
2014-07-02 01:48:00,1788E-3,5C000000,-0724,0835,12171,026.0,045.5,0.489,738.9,01.18,0.508
2014-07-02 01:49:00,1944E-3,5C000000,-0724,0836,12233,026.0,045.5,0.488,738.9,01.18,0.508
2014-07-02 01:50:00,1838E-3,5C000000,-0724,0835,12049,026.0,045.5,0.488,738.9,01.18,0.508
2014-07-02 01:51:00,1875E-3,5C000000,-0724,0834,12089,026.0,045.5,0.489,738.9,01.18,0.508
2014-07-02 01:52:00,1837E-3,5C000000,-0724,0836,12164,026.0,045.4,0.488,738.9,01.18,0.508
2014-07-02 01:53:00,2139E-3,5C000000,-0724,0835,11950,026.0,045.4,0.488,738.9,01.18,0.508
2014-07-02 01:54:00,1761E-3,5C000000,-0724,0835,12201,026.0,045.4,0.489,738.9,01.18,0.508
2014-07-02 01:55:00,1717E-3,5C000000,-0724,0835,12205,026.0,045.5,0.488,738.9,01.18,0.508
2014-07-02 01:56:00,1789E-3,5C000000,-0724,0835,12066,026.0,045.4,0.488,738.9,01.18,0.508
2014-07-02 01:57:00,1819E-3,5C000000,-0724,0835,12148,026.0,045.5,0.489,738.9,01.18,0.508
2014-07-02 01:58:00,2000E-3,5C000000,-0724,0835,12078,026.0,045.4,0.488,738.9,01.18,0.508
2014-07-02 01:59:00,1991E-3,5C000000,-0724,0835,12064,026.0,045.4,0.488,738.9,01.18,0.508
2014-07-02 02:00:00,1812E-3,5C000000,-0724,0835,11956,026.0,045.4,0.489,739.0,01.18,0.508
2014-07-02 02:01:00,1809E-3,5C000000,-0724,0835,12296,026.0,045.4,0.488,739.0,01.18,0.508
2014-07-02 02:02:00,1872E-3,5C000000,-0724,0835,12228,026.0,045.4,0.488,739.0,01.18,0.508
2014-07-02 02:03:00,1762E-3,5C000000,-0724,0834,12077,026.0,045.4,0.489,739.0,01.18,0.508
2014-07-02 02:04:00,1672E-3,5C000000,-0724,0836,12113,026.0,045.4,0.488,739.0,01.18,0.508
2014-07-02 02:05:00,1776E-3,5C000000,-0724,0837,12118,026.0,045.5,0.488,739.0,01.18,0.508
2014-07-02 02:06:00,1757E-3,5C000000,-0724,0837,12135,026.0,045.4,0.489,739.0,01.18,0.508
2014-07-02 02:07:00,1737E-3,5C000000,-0724,0837,12308,026.0,045.4,0.489,739.1,01.18,0.508
2014-07-02 02:08:00,1787E-3,5C000000,-0724,0835,12300,026.0,045.4,0.488,739.0,01.18,0.508
2014-07-02 02:09:00,1748E-3,5C000000,-0724,0836,12020,026.0,045.4,0.488,739.1,01.18,0.508
2014-07-02 02:10:00,1931E-3,5C000000,-0724,0837,12148,025.9,045.4,0.489,739.0,01.18,0.508
2014-07-02 02:11:00,1851E-3,5C000000,-0724,0837,12028,026.0,045.4,0.489,739.1,01.18,0.508
2014-07-02 02:12:00,1719E-3,5C000000,-0724,0836,12226,025.9,045.4,0.488,739.1,01.18,0.508
2014-07-02 02:13:00,1923E-3,5C000000,-0724,0836,12087,026.0,045.4,0.489,739.1,01.18,0.508
2014-07-02 02:14:00,1763E-3,5C000000,-0724,0835,12097,026.0,045.4,0.489,739.1,01.18,0.508
2014-07-02 02:15:00,1709E-3,5C000000,-0724,0835,11993,025.9,045.4,0.488,739.1,01.18,0.508
2014-07-02 02:16:00,1753E-3,5C000000,-0724,0835,12036,025.9,045.4,0.489,739.1,01.18,0.508
2014-07-02 02:17:00,1894E-3,5C000000,-0724,0835,12268,025.9,045.4,0.489,739.1,01.18,0.508
2014-07-02 02:18:00,1727E-3,5C000000,-0724,0835,12095,026.0,045.4,0.488,739.2,01.18,0.508
2014-07-02 02:19:00,1953E-3,5C000000,-0724,0835,11895,026.0,045.4,0.489,739.1,01.18,0.508
2014-07-02 02:20:00,1851E-3,5C000000,-0724,0836,12137,026.0,045.4,0.489,739.1,01.18,0.508
2014-07-02 02:21:00,1866E-3,5C000000,-0724,0835,12245,025.9,045.4,0.488,739.2,01.18,0.508
2014-07-02 02:22:00,1705E-3,5C000000,-0724,0836,12211,025.9,045.4,0.489,739.2,01.18,0.508
2014-07-02 02:23:00,1727E-3,5C000000,-0724,0835,12167,025.9,045.4,0.489,739.2,01.18,0.508
2014-07-02 02:24:00,1865E-3,5C000000,-0724,0835,12119,025.9,045.4,0.488,739.2,01.18,0.508
2014-07-02 02:25:00,1902E-3,5C000000,-0724,0836,12133,026.0,045.4,0.489,739.3,01.18,0.508
2014-07-02 02:26:00,1752E-3,5C000000,-0724,0836,11769,025.9,045.4,0.489,739.2,01.18,0.508
2014-07-02 02:27:00,1898E-3,5C000000,-0724,0836,11947,025.9,045.4,0.488,739.3,01.18,0.508
2014-07-02 02:28:00,1786E-3,5C000000,-0724,0835,12019,025.9,045.4,0.488,739.3,01.18,0.508
2014-07-02 02:29:00,1790E-3,5C000000,-0724,0836,12280,025.9,045.4,0.489,739.3,01.18,0.508
2014-07-02 02:30:00,1872E-3,5C000000,-0724,0835,12207,025.9,045.4,0.488,739.3,01.18,0.508
2014-07-02 02:31:00,1849E-3,5C000000,-0724,0835,12036,025.9,045.4,0.488,739.3,01.18,0.508
2014-07-02 02:32:00,1891E-3,5C000000,-0724,0837,12233,025.9,045.4,0.489,739.3,01.18,0.508
2014-07-02 02:33:00,1862E-3,5C000000,-0724,0835,12209,025.9,045.4,0.489,739.3,01.18,0.508
2014-07-02 02:34:00,1807E-3,5C000000,-0724,0835,12102,025.9,045.4,0.488,739.3,01.18,0.508
2014-07-02 02:35:00,1798E-3,5C000000,-0724,0835,12044,025.9,045.4,0.489,739.3,01.18,0.508
2014-07-02 02:36:00,1866E-3,5C000000,-0724,0835,12162,025.9,045.4,0.489,739.3,01.18,0.508
2014-07-02 02:37:00,1845E-3,5C000000,-0724,0836,12107,025.9,045.4,0.488,739.3,01.18,0.508
2014-07-02 02:38:00,1855E-3,5C000000,-0724,0836,12057,025.9,045.4,0.488,739.3,01.18,0.508
2014-07-02 02:39:00,1822E-3,5C000000,-0724,0835,12235,025.9,045.4,0.489,739.3,01.18,0.508
2014-07-02 02:40:00,1802E-3,5C000000,-0724,0835,11895,025.9,045.4,0.489,739.3,01.18,0.508
2014-07-02 02:41:00,1922E-3,5C000000,-0724,0836,12213,025.9,045.4,0.488,739.3,01.18,0.508
2014-07-02 02:42:00,1750E-3,5C000000,-0724,0836,12052,025.9,045.5,0.489,739.3,01.18,0.508
2014-07-02 02:43:00,1863E-3,5C000000,-0724,0836,12268,025.9,045.5,0.489,739.3,01.18,0.508
2014-07-02 02:44:00,1703E-3,5C000000,-0724,0835,12256,025.9,045.5,0.488,739.3,01.18,0.508
2014-07-02 02:45:00,1825E-3,5C000000,-0724,0836,12069,025.9,045.4,0.489,739.3,01.18,0.508
2014-07-02 02:46:00,1805E-3,5C000000,-0724,0836,12029,025.9,045.4,0.489,739.3,01.18,0.508
2014-07-02 02:47:00,1820E-3,5C000000,-0724,0836,12157,025.9,045.4,0.488,739.3,01.18,0.508
2014-07-02 02:48:00,1933E-3,5C000000,-0724,0836,12014,025.9,045.4,0.489,739.3,01.18,0.508
2014-07-02 02:49:00,1777E-3,5C000000,-0724,0835,12155,026.0,045.4,0.489,739.3,01.18,0.508
2014-07-02 02:50:00,1692E-3,5C000000,-0724,0834,12041,025.9,045.4,0.488,739.3,01.18,0.508
2014-07-02 02:51:00,1763E-3,5C000000,-0724,0836,12086,025.9,045.4,0.488,739.3,01.18,0.508
2014-07-02 02:52:00,1719E-3,5C000000,-0724,0836,12119,025.9,045.4,0.489,739.4,01.18,0.508
2014-07-02 02:53:00,1753E-3,5C000000,-0724,0835,12106,025.9,045.4,0.489,739.4,01.18,0.508
2014-07-02 02:54:00,1797E-3,5C000000,-0724,0835,12161,025.9,045.4,0.488,739.4,01.18,0.508
2014-07-02 02:55:00,1822E-3,5C000000,-0724,0836,11974,026.0,045.5,0.489,739.4,01.18,0.508
2014-07-02 02:56:00,1952E-3,5C000000,-0724,0835,12073,026.0,045.4,0.489,739.3,01.18,0.508
2014-07-02 02:57:00,1889E-3,5C000000,-0724,0835,12226,026.0,045.4,0.488,739.4,01.18,0.508
2014-07-02 02:58:00,1670E-3,5C000000,-0724,0836,12292,026.0,045.4,0.489,739.4,01.18,0.508
2014-07-02 02:59:00,1793E-3,5C000000,-0724,0837,12270,026.0,045.4,0.489,739.4,01.18,0.508
2014-07-02 03:00:00,1837E-3,5C000000,-0724,0836,12161,026.0,045.4,0.488,739.4,01.18,0.508
2014-07-02 03:01:00,1754E-3,5C000000,-0724,0835,12241,026.0,045.4,0.488,739.4,01.18,0.508
2014-07-02 03:02:00,1862E-3,5C000000,-0724,0836,12106,026.0,045.4,0.489,739.4,01.18,0.508
2014-07-02 03:03:00,1807E-3,5C000000,-0724,0835,12150,026.0,045.5,0.489,739.4,01.18,0.508
2014-07-02 03:04:00,1805E-3,5C000000,-0724,0836,12294,025.9,045.5,0.488,739.4,01.18,0.508
2014-07-02 03:05:00,1753E-3,5C000000,-0724,0836,12238,025.9,045.5,0.489,739.4,01.18,0.508
2014-07-02 03:06:00,1905E-3,5C000000,-0724,0836,12108,025.9,045.4,0.489,739.4,01.18,0.508
2014-07-02 03:07:00,1907E-3,5C000000,-0724,0834,12143,026.0,045.4,0.488,739.4,01.18,0.508
2014-07-02 03:08:00,1921E-3,5C000000,-0724,0836,12171,025.9,045.4,0.489,739.4,01.18,0.508
2014-07-02 03:09:00,1815E-3,5C000000,-0724,0836,12007,025.9,045.5,0.489,739.4,01.18,0.508
2014-07-02 03:10:00,1657E-3,5C000000,-0724,0835,12121,025.9,045.5,0.488,739.4,01.18,0.508
2014-07-02 03:11:00,1897E-3,5C000000,-0724,0836,12042,025.9,045.5,0.488,739.4,01.18,0.508
2014-07-02 03:12:00,1874E-3,5C000000,-0724,0836,12213,025.9,045.4,0.489,739.4,01.18,0.508
2014-07-02 03:13:00,1867E-3,5C000000,-0724,0836,12213,026.0,045.5,0.489,739.4,01.18,0.508
2014-07-02 03:14:00,1835E-3,5C000000,-0724,0836,12076,026.0,045.4,0.488,739.4,01.18,0.508
2014-07-02 03:15:00,1888E-3,5C000000,-0724,0836,12300,026.0,045.4,0.489,739.5,01.18,0.508
2014-07-02 03:16:00,1826E-3,5C000000,-0724,0835,12228,026.0,045.4,0.489,739.5,01.18,0.508
2014-07-02 03:17:00,1717E-3,5C000000,-0724,0836,12270,026.0,045.4,0.488,739.5,01.18,0.508
2014-07-02 03:18:00,1776E-3,5C000000,-0724,0836,12208,026.0,045.4,0.489,739.5,01.18,0.508
2014-07-02 03:19:00,1874E-3,5C000000,-0724,0835,12124,026.0,045.4,0.489,739.5,01.18,0.508
2014-07-02 03:20:00,1828E-3,5C000000,-0724,0836,12338,026.0,045.4,0.488,739.5,01.18,0.508
2014-07-02 03:21:00,1891E-3,5C000000,-0724,0835,12084,026.0,045.5,0.489,739.5,01.18,0.508
2014-07-02 03:22:00,1761E-3,5C000000,-0724,0836,12027,026.0,045.5,0.489,739.5,01.18,0.508
2014-07-02 03:23:00,1641E-3,5C000000,-0724,0837,12195,026.0,045.4,0.488,739.5,01.18,0.508
2014-07-02 03:24:00,1861E-3,5C000000,-0724,0835,12154,026.0,045.4,0.488,739.5,01.18,0.508
2014-07-02 03:25:00,1824E-3,5C000000,-0724,0835,12087,026.0,045.4,0.489,739.5,01.18,0.508
2014-07-02 03:26:00,1937E-3,5C000000,-0724,0836,12081,026.0,045.5,0.489,739.5,01.18,0.508
2014-07-02 03:27:00,1884E-3,5C000000,-0724,0836,11971,026.0,045.4,0.488,739.6,01.18,0.508
2014-07-02 03:28:00,1769E-3,5C000000,-0724,0836,12224,026.0,045.4,0.489,739.5,01.18,0.508
2014-07-02 03:29:00,1894E-3,5C000000,-0724,0835,12093,026.0,045.4,0.489,739.6,01.18,0.508
2014-07-02 03:30:00,1792E-3,5C000000,-0724,0836,12307,025.9,045.4,0.489,739.5,01.18,0.508
2014-07-02 03:31:00,1707E-3,5C000000,-0724,0836,12194,025.9,045.4,0.488,739.6,01.18,0.508
2014-07-02 03:32:00,1860E-3,5C000000,-0724,0835,12188,025.9,045.4,0.489,739.5,01.18,0.508
2014-07-02 03:33:00,1826E-3,5C000000,-0724,0835,12092,025.9,045.4,0.489,739.6,01.18,0.508
2014-07-02 03:34:00,1671E-3,5C000000,-0724,0836,12154,025.9,045.4,0.488,739.6,01.18,0.508
2014-07-02 03:35:00,1773E-3,5C000000,-0724,0836,12265,025.9,045.5,0.489,739.6,01.18,0.508
2014-07-02 03:36:00,1775E-3,5C000000,-0724,0836,12173,026.0,045.4,0.489,739.6,01.18,0.508
2014-07-02 03:37:00,1803E-3,5C000000,-0724,0836,12245,025.9,045.4,0.488,739.6,01.18,0.508
2014-07-02 03:38:00,1841E-3,5C000000,-0724,0835,11766,025.9,045.4,0.488,739.6,01.18,0.508
2014-07-02 03:39:00,1809E-3,5C000000,-0724,0836,12146,025.9,045.4,0.489,739.6,01.18,0.508
2014-07-02 03:40:00,1907E-3,5C000000,-0724,0836,12026,025.9,045.4,0.489,739.7,01.18,0.508
2014-07-02 03:41:00,1833E-3,5C000000,-0724,0835,12072,025.9,045.4,0.488,739.7,01.18,0.508
2014-07-02 03:42:00,1829E-3,5C000000,-0724,0835,12119,025.9,045.4,0.489,739.7,01.18,0.508
2014-07-02 03:43:00,1820E-3,5C000000,-0724,0836,12293,025.9,045.5,0.489,739.7,01.18,0.508
2014-07-02 03:44:00,1795E-3,5C000000,-0724,0836,12347,025.9,045.4,0.488,739.7,01.18,0.508
2014-07-02 03:45:00,1776E-3,5C000000,-0724,0837,12251,025.9,045.4,0.489,739.7,01.18,0.508
2014-07-02 03:46:00,1825E-3,5C000000,-0724,0835,12187,025.9,045.5,0.489,739.7,01.18,0.508
2014-07-02 03:47:00,2049E-3,5C000000,-0724,0835,12023,025.9,045.4,0.489,739.7,01.18,0.508
2014-07-02 03:48:00,1712E-3,5C000000,-0724,0835,11935,025.9,045.5,0.488,739.7,01.18,0.508
2014-07-02 03:49:00,1741E-3,5C000000,-0724,0836,12070,025.9,045.5,0.489,739.7,01.18,0.508
2014-07-02 03:50:00,1945E-3,5C000000,-0724,0836,12125,025.9,045.4,0.489,739.7,01.18,0.508
2014-07-02 03:51:00,1974E-3,5C000000,-0724,0834,12261,025.9,045.4,0.488,739.7,01.18,0.508
2014-07-02 03:52:00,1727E-3,5C000000,-0724,0836,12034,025.9,045.5,0.489,739.7,01.18,0.508
2014-07-02 03:53:00,1774E-3,5C000000,-0724,0835,12131,025.9,045.5,0.489,739.7,01.18,0.508
2014-07-02 03:54:00,1756E-3,5C000000,-0724,0835,11973,025.9,045.5,0.489,739.7,01.18,0.508
2014-07-02 03:55:00,1844E-3,5C000000,-0724,0836,11942,025.9,045.5,0.488,739.7,01.18,0.508
2014-07-02 03:56:00,1712E-3,5C000000,-0724,0836,12093,025.9,045.4,0.489,739.8,01.18,0.508
2014-07-02 03:57:00,1863E-3,5C000000,-0724,0837,12232,025.9,045.4,0.489,739.8,01.18,0.508
2014-07-02 03:58:00,1687E-3,5C000000,-0724,0836,12320,025.9,045.4,0.489,739.7,01.18,0.508
2014-07-02 03:59:00,1732E-3,5C000000,-0724,0836,12110,025.9,045.5,0.489,739.8,01.18,0.508
2014-07-02 04:00:00,1714E-3,5C000000,-0724,0835,12164,025.9,045.5,0.489,739.8,01.18,0.508
2014-07-02 04:01:00,1960E-3,5C000000,-0724,0835,12134,025.9,045.4,0.489,739.8,01.18,0.508
2014-07-02 04:02:00,1812E-3,5C000000,-0724,0835,12087,025.9,045.4,0.488,739.8,01.18,0.508
2014-07-02 04:03:00,1805E-3,5C000000,-0724,0836,12034,025.9,045.4,0.489,739.8,01.18,0.508
2014-07-02 04:04:00,1807E-3,5C000000,-0724,0837,12031,025.9,045.4,0.489,739.8,01.18,0.508
2014-07-02 04:05:00,1967E-3,5C000000,-0724,0835,12095,025.9,045.4,0.488,739.8,01.18,0.508
2014-07-02 04:06:00,1837E-3,5C000000,-0724,0837,12210,025.9,045.4,0.489,739.8,01.18,0.508
2014-07-02 04:07:00,1811E-3,5C000000,-0724,0836,12145,025.9,045.4,0.489,739.8,01.18,0.508
2014-07-02 04:08:00,1844E-3,5C000000,-0724,0836,12193,025.9,045.4,0.489,739.8,01.18,0.508
2014-07-02 04:09:00,1773E-3,5C000000,-0724,0835,12011,025.9,045.4,0.489,739.8,01.18,0.508
2014-07-02 04:10:00,1777E-3,5C000000,-0724,0835,12395,025.9,045.4,0.489,739.8,01.18,0.508
2014-07-02 04:11:00,1741E-3,5C000000,-0724,0835,12192,025.9,045.4,0.489,739.8,01.18,0.508
2014-07-02 04:12:00,1711E-3,5C000000,-0724,0836,12163,025.9,045.4,0.488,739.8,01.18,0.508
2014-07-02 04:13:00,1738E-3,5C000000,-0724,0835,12146,025.9,045.4,0.489,739.8,01.18,0.508
2014-07-02 04:14:00,1765E-3,5C000000,-0724,0835,12103,025.9,045.4,0.489,739.8,01.18,0.508
2014-07-02 04:15:00,1740E-3,5C000000,-0724,0836,12253,025.9,045.4,0.489,739.8,01.18,0.508
2014-07-02 04:16:00,1785E-3,5C000000,-0724,0834,12193,025.9,045.4,0.489,739.9,01.18,0.508
2014-07-02 04:17:00,1849E-3,5C000000,-0724,0835,12108,025.9,045.5,0.489,739.8,01.18,0.508
2014-07-02 04:18:00,1860E-3,5C000000,-0724,0836,12190,025.9,045.4,0.489,739.9,01.18,0.508
2014-07-02 04:19:00,1881E-3,5C000000,-0724,0836,12223,025.9,045.4,0.489,739.9,01.18,0.508
2014-07-02 04:20:00,1908E-3,5C000000,-0724,0836,12122,025.9,045.4,0.489,739.9,01.18,0.508